This is the latest recevied weather packets stored in our database for station/object KI4BSX. If no packets are shown the sender has not sent any weather packets the latest 10 day(s).
| Time | Temp. | Humidity | Pressure | Rain* | Wind** | Luminosity | Snow |
|---|---|---|---|---|---|---|---|
| 1777897394 | 7.78° C | 95% | 1020.8 hPa | 0 mm | - | - | - |
| 1777897090 | 7.22° C | 95% | 1020.8 hPa | 0 mm | - | - | - |
| 1777896786 | 6.67° C | 95% | 1020.5 hPa | 0 mm | - | - | - |
| 1777896484 | 6.67° C | 95% | 1020.5 hPa | 0 mm | - | - | - |
| 1777896181 | 6.11° C | 95% | 1020.5 hPa | 0 mm | - | - | - |
| 1777895878 | 5.56° C | 95% | 1020.6 hPa | 0 mm | - | - | - |
| 1777895576 | 5.56° C | 95% | 1020.4 hPa | 0 mm | - | - | - |
| 1777895273 | 5.56° C | 95% | 1020.4 hPa | 0 mm | - | - | - |
| 1777894971 | 5° C | 95% | 1020.6 hPa | 0 mm | - | - | - |
| 1777894668 | 4.44° C | 95% | 1020.4 hPa | 0 mm | - | - | - |
| 1777894364 | 4.44° C | 94% | 1020.4 hPa | 0 mm | - | - | - |
| 1777894062 | 4.44° C | 94% | 1020.4 hPa | 0 mm | - | - | - |
| 1777893758 | 4.44° C | 94% | 1020.4 hPa | 0 mm | - | - | - |
| 1777893455 | 3.89° C | 94% | 1020.4 hPa | 0 mm | - | - | - |
| 1777893152 | 3.89° C | 94% | 1020.1 hPa | 0 mm | - | - | - |
| 1777892848 | 3.89° C | 94% | 1020.2 hPa | 0 mm | - | - | - |
| 1777892544 | 3.89° C | 94% | 1020.2 hPa | 0 mm | - | - | - |
| 1777892240 | 3.89° C | 94% | 1020.1 hPa | 0 mm | - | - | - |
| 1777891937 | 3.89° C | 94% | 1020.3 hPa | 0 mm | - | - | - |
| 1777891635 | 3.89° C | 94% | 1020.3 hPa | 0 mm | - | - | - |
| 1777891331 | 3.89° C | 94% | 1020 hPa | 0 mm | - | - | - |
| 1777891027 | 3.89° C | 94% | 1020.1 hPa | 0 mm | - | - | - |
| 1777890726 | 3.89° C | 94% | 1020.1 hPa | 0 mm | - | - | - |
| 1777890422 | 3.89° C | 93% | 1020 hPa | 0 mm | - | - | - |
| 1777890118 | 3.89° C | 93% | 1020.2 hPa | 0 mm | - | - | - |
* Rain latest hour (hover to see other rain measurements)
** Current wind speed in m/s (hover to see current wind gust speed)